TimePST,TemperatureF,Dew PointF,Humidity,Sea Level PressureIn,VisibilityMPH,Wind Direction,Wind SpeedMPH,Gust SpeedMPH,PrecipitationIn,Events,Conditions,WindDirDegrees,DateUTC
12:10 AM,32.0,24.8,75,30.23,10.0,North,3.5,-,N/A,,Clear,350,2012-11-14 08:10:00
12:30 AM,32.0,26.6,80,30.23,10.0,Calm,Calm,-,N/A,,Clear,0,2012-11-14 08:30:00
12:50 AM,30.2,24.8,80,30.22,10.0,NW,3.5,-,N/A,,Clear,310,2012-11-14 08:50:00
1:10 AM,28.4,23.0,80,30.22,10.0,Calm,Calm,-,N/A,,Clear,0,2012-11-14 09:10:00
1:30 AM,28.4,24.8,86,30.22,10.0,North,3.5,-,N/A,,Clear,10,2012-11-14 09:30:00
1:50 AM,32.0,26.6,80,30.22,10.0,North,3.5,-,N/A,,Clear,360,2012-11-14 09:50:00
2:10 AM,32.0,26.6,80,30.23,10.0,WNW,3.5,-,N/A,,Clear,300,2012-11-14 10:10:00
2:30 AM,30.2,26.6,86,30.23,10.0,Calm,Calm,-,N/A,,Clear,0,2012-11-14 10:30:00
2:50 AM,28.4,24.8,86,30.22,10.0,North,4.6,-,N/A,,Clear,10,2012-11-14 10:50:00
3:10 AM,32.0,26.6,80,30.22,10.0,Calm,Calm,-,N/A,,Clear,0,2012-11-14 11:10:00
3:30 AM,28.4,24.8,86,30.22,10.0,Calm,Calm,-,N/A,,Clear,0,2012-11-14 11:30:00
3:50 AM,26.6,24.8,93,30.21,10.0,Calm,Calm,-,N/A,,Clear,0,2012-11-14 11:50:00
4:10 AM,28.4,24.8,86,30.22,10.0,Calm,Calm,-,N/A,,Clear,0,2012-11-14 12:10:00
4:30 AM,28.4,24.8,86,30.22,10.0,Calm,Calm,-,N/A,,Clear,0,2012-11-14 12:30:00
4:50 AM,30.2,26.6,86,30.23,10.0,Calm,Calm,-,N/A,,Clear,0,2012-11-14 12:50:00
5:10 AM,26.6,19.4,74,30.23,10.0,Calm,Calm,-,N/A,,Clear,0,2012-11-14 13:10:00
5:30 AM,24.8,19.4,80,30.23,10.0,Calm,Calm,-,N/A,,Clear,0,2012-11-14 13:30:00
5:50 AM,24.8,21.2,86,30.23,10.0,Calm,Calm,-,N/A,,Clear,0,2012-11-14 13:50:00
6:10 AM,26.6,23.0,86,30.22,10.0,North,3.5,-,N/A,,Clear,10,2012-11-14 14:10:00
6:30 AM,28.4,26.6,93,30.22,10.0,NNW,3.5,-,N/A,,Clear,340,2012-11-14 14:30:00
6:50 AM,26.6,23.0,86,30.23,10.0,Calm,Calm,-,N/A,,Partly Cloudy,0,2012-11-14 14:50:00
7:10 AM,26.6,23.0,86,30.23,10.0,SW,5.8,-,N/A,,Mostly Cloudy,230,2012-11-14 15:10:00
7:30 AM,28.4,24.8,86,30.23,10.0,Calm,Calm,-,N/A,,Mostly Cloudy,0,2012-11-14 15:30:00
7:50 AM,28.4,24.8,86,30.24,10.0,Calm,Calm,-,N/A,,Mostly Cloudy,0,2012-11-14 15:50:00
8:10 AM,32.0,26.6,80,30.24,10.0,Calm,Calm,-,N/A,,Scattered Clouds,0,2012-11-14 16:10:00
8:30 AM,32.0,26.6,80,30.24,10.0,Calm,Calm,-,N/A,,Partly Cloudy,0,2012-11-14 16:30:00
8:50 AM,35.6,28.4,75,30.24,10.0,Calm,Calm,-,N/A,,Clear,0,2012-11-14 16:50:00
9:10 AM,39.2,28.4,65,30.24,10.0,Calm,Calm,-,N/A,,Clear,0,2012-11-14 17:10:00
9:30 AM,41.0,30.2,65,30.24,10.0,Calm,Calm,-,N/A,,Clear,0,2012-11-14 17:30:00
9:50 AM,44.6,32.0,61,30.23,10.0,SW,3.5,-,N/A,,Clear,220,2012-11-14 17:50:00
10:10 AM,46.4,32.0,57,30.24,10.0,South,3.5,-,N/A,,Clear,180,2012-11-14 18:10:00
10:30 AM,50.0,32.0,50,30.23,10.0,ESE,3.5,-,N/A,,Clear,120,2012-11-14 18:30:00
10:50 AM,50.0,32.0,50,30.23,10.0,SE,4.6,-,N/A,,Clear,140,2012-11-14 18:50:00
11:10 AM,51.8,32.0,47,30.22,10.0,SE,4.6,-,N/A,,Clear,140,2012-11-14 19:10:00
11:30 AM,53.6,30.2,41,30.22,10.0,South,4.6,-,N/A,,Clear,180,2012-11-14 19:30:00
11:50 AM,55.4,30.2,38,30.21,10.0,SSE,4.6,-,N/A,,Clear,160,2012-11-14 19:50:00
12:10 PM,55.4,28.4,36,30.20,10.0,Calm,Calm,-,N/A,,Clear,0,2012-11-14 20:10:00
12:30 PM,55.4,28.4,36,30.20,10.0,Calm,Calm,-,N/A,,Clear,0,2012-11-14 20:30:00
12:50 PM,57.2,28.4,33,30.19,10.0,Calm,Calm,-,N/A,,Clear,0,2012-11-14 20:50:00
1:10 PM,57.2,28.4,33,30.18,10.0,SE,4.6,-,N/A,,Clear,130,2012-11-14 21:10:00
1:30 PM,57.2,28.4,33,30.18,10.0,SE,5.8,-,N/A,,Clear,140,2012-11-14 21:30:00
1:50 PM,57.2,26.6,31,30.17,10.0,NNE,4.6,-,N/A,,Clear,20,2012-11-14 21:50:00
2:10 PM,57.2,26.6,31,30.16,10.0,SE,4.6,-,N/A,,Clear,140,2012-11-14 22:10:00
2:30 PM,59.0,26.6,29,30.16,10.0,SE,5.8,-,N/A,,Clear,130,2012-11-14 22:30:00
2:50 PM,57.2,26.6,31,30.16,10.0,Calm,Calm,-,N/A,,Clear,0,2012-11-14 22:50:00
3:10 PM,57.2,26.6,31,30.16,10.0,SSE,3.5,-,N/A,,Clear,150,2012-11-14 23:10:00
3:30 PM,57.2,26.6,31,30.17,10.0,Calm,Calm,-,N/A,,Clear,0,2012-11-14 23:30:00
3:50 PM,59.0,26.6,29,30.16,10.0,SW,3.5,-,N/A,,Clear,220,2012-11-14 23:50:00
4:10 PM,57.2,26.6,31,30.17,10.0,East,5.8,-,N/A,,Clear,100,2012-11-15 00:10:00
4:30 PM,53.6,28.4,38,30.16,10.0,ENE,5.8,-,N/A,,Clear,60,2012-11-15 00:30:00
4:50 PM,51.8,26.6,38,30.17,10.0,ESE,4.6,-,N/A,,Clear,110,2012-11-15 00:50:00
5:10 PM,48.2,26.6,43,30.17,10.0,ESE,8.1,-,N/A,,Clear,120,2012-11-15 01:10:00
5:30 PM,46.4,26.6,46,30.18,10.0,Calm,Calm,-,N/A,,Clear,0,2012-11-15 01:30:00
5:50 PM,44.6,26.6,49,30.18,10.0,Calm,Calm,-,N/A,,Clear,0,2012-11-15 01:50:00
6:10 PM,41.0,24.8,53,30.18,10.0,NNW,3.5,-,N/A,,Clear,340,2012-11-15 02:10:00
6:30 PM,41.0,26.6,57,30.19,10.0,North,5.8,-,N/A,,Clear,350,2012-11-15 02:30:00
6:50 PM,41.0,24.8,53,30.19,10.0,North,4.6,-,N/A,,Clear,350,2012-11-15 02:50:00
7:10 PM,37.4,23.0,56,30.19,10.0,North,3.5,-,N/A,,Clear,350,2012-11-15 03:10:00
7:30 PM,37.4,24.8,60,30.20,10.0,North,5.8,-,N/A,,Clear,360,2012-11-15 03:30:00
7:50 PM,35.6,23.0,60,30.20,10.0,North,6.9,-,N/A,,Clear,350,2012-11-15 03:50:00
8:10 PM,37.4,24.8,60,30.21,10.0,North,4.6,-,N/A,,Clear,360,2012-11-15 04:10:00
8:30 PM,37.4,24.8,60,30.21,10.0,NNW,4.6,-,N/A,,Clear,340,2012-11-15 04:30:00
8:50 PM,32.0,19.4,60,30.21,10.0,NNW,6.9,-,N/A,,Clear,340,2012-11-15 04:50:00
9:10 PM,32.0,21.2,64,30.22,10.0,North,5.8,-,N/A,,Clear,350,2012-11-15 05:10:00
9:30 PM,32.0,21.2,64,30.22,10.0,North,5.8,-,N/A,,Clear,360,2012-11-15 05:30:00
9:50 PM,28.4,21.2,74,30.22,10.0,Calm,Calm,-,N/A,,Clear,0,2012-11-15 05:50:00
10:10 PM,28.4,21.2,74,30.21,10.0,Calm,Calm,-,N/A,,Clear,0,2012-11-15 06:10:00
10:30 PM,30.2,19.4,64,30.21,10.0,NNW,3.5,-,N/A,,Clear,340,2012-11-15 06:30:00
10:50 PM,28.4,19.4,69,30.21,10.0,North,4.6,-,N/A,,Clear,350,2012-11-15 06:50:00
11:10 PM,26.6,17.6,69,30.21,10.0,North,6.9,-,N/A,,Clear,360,2012-11-15 07:10:00
11:30 PM,32.0,24.8,75,30.21,10.0,Calm,Calm,-,N/A,,Clear,0,2012-11-15 07:30:00
11:50 PM,32.0,24.8,75,30.21,10.0,Calm,Calm,-,N/A,,Clear,0,2012-11-15 07:50:00